Vertical_Velocity
4 5 5 5 4 4 3 2 2 1 1 0 -0 -0 -0 -0 -0 0 0 -1 -3 -4 -4 -5 -5 -6 -6 -6 -6 -5 -4 -3 -1 2 4 1 -2 -4 -6 -6 -6 -4 -2 -1 0 2 3 4 3 1 -1 -1 -0 -0 -1 -3 -3 -2 -0 0 -0 -1 -2 -2 -2 -0 3 2 3 4 5 3 1 -0 -1 -0 1 1 0 -0 -1 -1 -0 -0 -0 -1 -1 -1 -1 -0 0 0 1 1 1 1 1 0 0 0 0 1 1
2 3 4 4 4 4 4 4 4 3 3 2 1 1 0 0 1 2 2 0 -1 -2 -3 -4 -4 -4 -5 -5 -5 -6 -6 -5 -2 0 2 -0 -3 -5 -6 -6 -6 -5 -3 -1 1 3 5 4 2 -0 -2 -2 -1 -0 -1 -3 -3 -2 -1 0 0 -0 -1 -1 -1 -0 1 1 3 4 6 5 4 2 1 2 2 2 0 -0 -1 -1 -0 -0 -0 -1 -1 -1 -1 -1 -1 -0 0 1 1 1 1 0 0 -0 0 0 1
0 1 1 2 2 2 2 3 3 3 3 3 3 2 2 1 2 2 3 2 1 0 -1 -2 -2 -3 -4 -4 -4 -4 -5 -5 -3 -2 -1 -3 -4 -5 -5 -5 -5 -5 -4 -2 1 3 5 4 2 0 -1 -2 -1 -1 -1 -3 -3 -2 -1 1 1 1 -0 -0 -0 0 1 1 2 3 5 5 6 5 5 4 3 2 -0 -0 0 0 0 -1 -1 -1 -1 -1 -1 -1 -1 -1 -0 0 1 1 1 1 0 0 0 0 1
-0 -0 0 0 0 1 1 1 1 1 1 1 1 1 1 2 2 3 3 3 2 1 1 0 -0 -1 -2 -2 -3 -3 -4 -4 -3 -2 -3 -5 -6 -6 -4 -4 -4 -4 -4 -2 -0 2 4 3 3 1 -0 -1 -1 -2 -2 -3 -3 -3 -1 1 2 1 0 0 0 0 1 1 2 2 3 4 5 6 5 4 2 1 1 1 1 1 1 -1 -2 -2 -2 -1 -1 -1 -1 -1 -1 -0 0 1 1 1 2 2 2 0 1
-1 -1 -0 -0 -0 0 0 0 0 0 0 -0 -0 -0 -0 -0 0 1 2 2 2 2 2 2 1 1 0 -1 -1 -2 -2 -2 -2 -2 -3 -5 -6 -6 -5 -4 -4 -3 -3 -2 -1 -0 1 2 2 2 1 0 -1 -2 -2 -3 -4 -3 -1 1 2 2 0 -0 -0 0 1 1 2 2 2 2 3 4 4 3 2 1 1 1 1 1 -0 -1 -0 -1 -2 -2 -1 -1 -1 -1 -1 -1 -0 0 0 1 3 4 2 1 0
-1 -1 -1 -1 -1 -0 -0 0 0 0 -0 -0 -0 -0 -1 -1 -1 -1 -0 0 1 1 1 2 2 2 2 1 0 -0 -1 -1 -1 -2 -3 -4 -5 -6 -5 -4 -4 -3 -3 -2 -2 -2 -1 0 1 2 2 2 1 -1 -2 -4 -4 -3 -1 1 2 1 0 -1 -1 -0 0 1 1 2 2 2 1 1 1 1 1 0 -0 0 1 1 1 0 -0 -0 0 -1 -1 -0 -0 -1 -1 -1 -0 0 0 1 3 1 0 0 -0
-2 -2 -2 -2 -1 -1 -1 -1 -0 -0 -0 -0 -0 -0 -0 -0 -1 -1 -1 -1 -1 -1 -1 0 1 2 2 2 2 1 0 -0 -0 -1 -2 -3 -4 -5 -5 -4 -3 -3 -3 -3 -3 -3 -3 -1 -0 1 2 2 2 0 -2 -3 -4 -4 -1 1 2 1 -0 -1 -1 -1 -0 1 1 1 1 1 0 -1 -1 -1 0 1 0 0 0 1 1 1 0 -1 -1 -1 -1 -0 1 1 1 1 -0 -0 0 1 4 -0 -1 0 0
-3 -3 -3 -2 -2 -2 -2 -2 -1 -1 -1 -1 -1 -1 -0 -0 -0 -1 -1 -1 -1 -1 -2 -1 -1 -0 1 2 2 2 1 1 0 0 -0 -2 -3 -4 -5 -4 -3 -2 -3 -3 -3 -4 -4 -3 -1 0 1 2 2 1 -1 -2 -3 -3 -2 0 1 0 -1 -1 -1 -1 -0 0 1 1 1 0 -0 -1 -2 -1 1 2 3 1 0 -0 1 2 2 1 -1 -1 -1 -1 -0 2 4 6 5 3 1 1 4 1 -0 0 0
-4 -4 -4 -4 -3 -3 -3 -3 -3 -2 -2 -2 -1 -1 -1 -1 -1 -1 -1 -1 -1 -1 -2 -2 -2 -1 -1 0 1 1 1 1 1 1 0 -0 -2 -3 -4 -4 -3 -2 -2 -2 -3 -4 -5 -4 -2 -1 -1 1 2 1 0 -1 -2 -2 -2 -1 -1 -1 -2 -1 -1 -1 -0 0 1 0 0 0 -0 -0 -0 0 1 2 2 1 0 0 1 2 2 2 1 1 0 0 -0 -0 1 3 5 4 2 1 3 1 0 0 -0
-5 -5 -5 -5 -4 -4 -4 -4 -4 -3 -3 -3 -2 -2 -2 -2 -1 -1 -1 -1 -1 -1 -2 -2 -2 -2 -1 -1 -0 -0 0 0 0 0 1 0 -0 -2 -3 -3 -3 -2 -1 -2 -2 -4 -5 -4 -4 -2 -2 1 1 0 1 0 -0 -1 -1 -2 -2 -2 -2 -1 -1 0 1 1 1 0 0 0 0 1 1 2 2 2 1 0 -0 0 0 1 2 2 2 2 1 1 0 1 1 1 0 1 2 3 4 2 1 -0 -0
-6 -6 -6 -6 -6 -6 -6 -6 -5 -5 -4 -4 -4 -4 -3 -2 -2 -2 -2 -2 -2 -2 -2 -2 -2 -2 -2 -1 -1 -1 -1 -1 -1 -1 0 0 0 -0 -1 -2 -2 -2 -1 -2 -2 -3 -4 -4 -4 -3 -2 -1 -1 -0 2 0 1 0 -1 -2 -3 -3 -3 -1 -0 1 1 1 1 0 0 0 0 1 2 2 2 1 1 -0 -0 -0 -0 1 1 1 3 3 3 2 1 1 0 0 0 -0 -0 1 3 2 1 0 2
-7 -6 -6 -6 -7 -7 -7 -7 -7 -6 -6 -6 -5 -5 -4 -4 -3 -3 -2 -2 -2 -2 -3 -2 -2 -2 -2 -1 -1 -1 -1 -2 -2 -2 -1 -0 -0 0 -0 -1 -1 -1 -1 -1 -2 -3 -3 -3 -3 -3 -2 -3 -2 -1 0 1 1 1 -1 -1 -3 -4 -4 -2 -0 1 1 1 0 0 -0 -0 -0 0 1 2 2 1 0 -0 -1 -1 -1 -1 0 1 2 3 3 3 2 1 0 -0 -0 -0 -0 -0 0 1 0 0 3
-6 -6 -5 -5 -5 -5 -6 -6 -6 -6 -6 -6 -6 -5 -5 -5 -4 -4 -3 -2 -2 -2 -3 -3 -3 -3 -2 -2 -1 -1 -1 -1 -2 -3 -2 -2 -1 -0 -0 -0 -1 -1 -1 -1 -2 -2 -2 -2 -2 -3 -2 -4 -3 -2 -2 1 1 1 0 -1 -2 -4 -4 -2 -0 1 1 0 0 -0 -1 -1 -0 0 1 2 2 2 0 -0 -1 -1 -1 -1 0 1 1 3 3 4 3 2 1 0 -0 -1 -1 -0 0 1 1 0 -0
-4 -4 -3 -3 -3 -2 -3 -3 -3 -4 -4 -4 -4 -4 -4 -4 -4 -3 -2 -2 -2 -2 -2 -2 -3 -3 -3 -2 -2 -1 -1 -1 -2 -3 -3 -2 -2 -1 -1 -0 -0 -0 -0 -1 -2 -2 -2 -1 -2 -2 -2 -3 -3 -2 -3 -0 1 1 1 -0 -2 -4 -4 -2 -0 1 0 0 0 -0 -1 -1 -0 0 1 2 3 2 1 0 -0 -1 -1 -0 1 1 1 2 3 3 3 2 1 1 -0 -1 -1 -0 1 2 3 2 -1
-2 -2 -1 -1 -1 -1 -1 -1 -1 -1 -1 -1 -2 -2 -2 -2 -2 -2 -2 -1 -1 -1 -1 -1 -1 -2 -2 -2 -2 -1 -1 -1 -2 -2 -3 -3 -2 -2 -1 -1 -1 -0 -0 -1 -1 -1 -1 -1 -1 -2 -2 -2 -3 -3 -3 -1 -1 0 2 -0 -2 -3 -4 -2 -1 0 1 1 1 0 -0 -0 -0 0 1 2 2 2 2 1 0 -1 -2 -0 1 2 2 2 2 2 3 3 2 1 -0 -1 -1 -0 1 2 2 1 -0
-1 -1 -1 -1 -1 -1 -1 -1 -1 -1 -1 -1 -1 -1 -1 -2 -2 -2 -1 -1 -0 -0 -0 0 0 -0 -1 -1 -1 -1 -1 -1 -1 -2 -2 -3 -2 -2 -2 -1 -1 -1 -0 -1 -1 -1 -0 -1 -1 -1 -2 -2 -2 -3 -2 -2 -1 -0 1 -0 -1 -2 -4 -3 -2 -0 1 1 1 0 -1 -1 -0 1 1 1 2 2 2 2 1 -1 -2 -0 1 2 2 2 1 1 1 2 3 2 0 -0 -1 -0 0 2 2 1 0
-1 -1 -1 -1 -1 -1 -1 -1 -1 -1 -1 -1 -1 -1 -1 -2 -2 -2 -1 -1 -1 -0 -0 0 0 0 0 0 -0 -0 -0 -0 -1 -1 -2 -2 -2 -2 -2 -1 -1 -1 -1 -1 -1 -1 -0 -1 -1 -1 -1 -1 -2 -2 -1 -2 -2 -1 -0 -1 -1 -2 -3 -3 -2 -1 1 1 1 -0 -1 -0 0 1 1 1 1 1 2 2 1 0 -1 -1 0 1 2 2 1 0 0 1 1 2 2 1 0 0 0 1 2 2 3
-1 -2 -2 -2 -2 -2 -2 -2 -2 -2 -2 -2 -2 -2 -2 -2 -3 -3 -2 -1 -1 -1 -1 -1 -0 -0 -0 0 0 0 0 0 0 -0 -1 -1 -2 -2 -2 -2 -1 -1 -1 -1 -1 -1 -0 0 -0 -0 -1 -1 -2 -2 -1 -1 -1 -1 -1 -2 -1 -1 -2 -3 -3 -2 0 1 0 -0 -0 0 1 1 1 1 1 1 2 2 2 1 -0 -0 -0 1 1 1 1 0 -0 -0 0 1 2 3 3 2 1 1 1 3 4
-0 -1 -2 -3 -3 -3 -2 -2 -2 -2 -2 -3 -3 -3 -3 -4 -4 -4 -4 -3 -2 -2 -2 -2 -2 -1 -1 -1 -1 -0 0 1 1 0 0 0 -1 -1 -2 -2 -1 -1 -1 -1 -1 -1 -0 0 0 0 0 -1 -2 -2 -1 -1 -1 -1 -2 -3 -2 -1 -1 -2 -2 -2 -1 -0 0 1 1 1 1 1 2 2 2 2 2 2 2 1 0 -0 -0 -0 0 1 1 1 -0 -0 -1 -0 1 3 4 4 3 2 2 2 2
1 1 -0 -1 -2 -3 -3 -3 -3 -3 -3 -3 -3 -4 -4 -5 -6 -7 -7 -5 -4 -4 -4 -4 -3 -3 -3 -3 -2 -2 -1 -0 0 0 1 1 0 -0 -1 -2 -2 -1 -1 -1 -1 -0 -1 -0 0 1 1 -0 -1 -1 -1 -1 -1 -0 -1 -3 -3 -2 -1 -1 -2 -2 -3 -2 -0 1 2 2 2 2 2 2 2 2 2 2 2 2 1 0 -0 -1 -1 0 1 1 0 -0 -0 -0 1 2 3 3 5 5 4 2 1
2 2 2 2 0 -1 -2 -3 -4 -4 -4 -3 -3 -3 -6 -5 -6 -7 -9 -6 -7 -7 -7 -6 -6 -6 -5 -5 -4 -4 -4 -2 -1 -1 0 1 1 0 0 -1 -1 -1 -2 -2 -1 -0 -2 -0 0 1 1 0 -0 -0 -1 -1 -0 -0 -2 -3 -3 -2 -2 -1 -1 -2 -3 -2 -1 1 2 2 2 1 1 2 2 2 2 2 2 2 1 0 -1 -1 -1 -1 0 1 1 0 0 0 0 1 1 2 4 4 4 4 2
0 1 1 3 2 1 -0 -1 -3 -4 -5 -4 -3 -3 -7 -4 -4 -6 -10 -6 -7 -9 -9 -8 -8 -9 -7 -6 -6 -7 -7 -5 -4 -3 -2 -0 1 0 0 -0 -0 -1 -2 -2 -1 -1 -2 -0 0 0 1 1 1 0 -0 -1 -0 -0 -2 -2 -3 -3 -2 -2 -1 -2 -2 -3 -1 0 2 2 2 1 2 2 2 2 2 2 2 1 1 -0 -1 -1 -2 -1 0 1 1 1 1 1 1 1 1 2 3 3 3 3 3
-3 -2 -3 -0 1 0 -0 1 -1 -4 -4 -4 -4 -5 -8 -4 -3 -4 -8 -5 -5 -7 -9 -8 -10 -10 -9 -7 -8 -10 -9 -7 -7 -7 -5 -3 -1 -1 0 0 0 -0 -2 -1 -1 -2 -2 -0 -0 -0 1 1 1 1 1 0 -0 -0 -2 -2 -2 -3 -2 -2 -2 -1 -2 -2 -2 -1 1 2 2 2 2 2 2 2 2 1 1 1 0 -0 -1 -1 -1 -0 1 1 2 2 2 2 1 1 1 1 1 2 2 1 2
-5 -5 -7 -4 -3 -4 -4 -0 -1 -4 -4 -3 -4 -6 -8 -6 -4 -4 -6 -4 -4 -5 -6 -7 -8 -9 -8 -8 -9 -10 -8 -8 -10 -10 -7 -5 -5 -4 -1 -1 -0 -0 -1 -1 -1 -2 -1 -1 -1 -0 1 1 2 2 2 1 0 -0 -1 -2 -2 -2 -2 -2 -2 -2 -1 -2 -2 -1 0 1 2 3 2 3 3 2 1 0 0 0 0 -0 -1 -1 -1 -0 1 1 1 1 1 1 1 -0 -0 0 1 1 1 1 2
-6 -6 -8 -6 -6 -7 -8 -4 -4 -5 -4 -4 -4 -5 -7 -7 -6 -5 -6 -4 -3 -3 -4 -4 -5 -6 -5 -7 -9 -9 -6 -8 -10 -11 -9 -8 -7 -7 -4 -3 -2 -1 -1 -0 -1 -1 -1 -2 -1 -0 1 1 2 2 2 2 1 0 -1 -1 -2 -2 -2 -2 -2 -2 -1 -1 -1 -1 -1 0 1 2 3 3 2 1 0 -0 -0 0 1 1 0 -0 -0 -0 0 0 -0 -0 -0 -0 -0 -1 -1 -0 0 0 0 1 2
-5 -6 -8 -6 -7 -8 -9 -7 -7 -7 -6 -6 -5 -4 -6 -6 -6 -5 -6 -5 -3 -2 -3 -3 -2 -3 -4 -6 -7 -6 -5 -7 -9 -9 -9 -9 -9 -8 -7 -5 -4 -4 -2 -1 -1 -1 -1 -2 -2 -1 -0 0 1 2 2 4 3 1 -1 -1 -1 -2 -2 -2 -2 -2 -2 -1 -1 -1 -1 -1 1 2 3 3 2 1 1 1 1 2 2 2 1 0 -1 -1 -1 -1 -1 -1 -1 -1 -0 0 0 0 -0 -0 0 1 3
-4 -5 -6 -6 -7 -8 -7 -8 -8 -8 -8 -7 -6 -6 -6 -6 -6 -5 -4 -6 -4 -2 -3 -2 -1 -1 -3 -2 -3 -4 -4 -5 -6 -7 -7 -8 -8 -8 -8 -7 -7 -6 -4 -3 -2 -1 -0 -1 -2 -1 -1 -0 1 2 2 4 4 3 0 -1 -1 -2 -1 -2 -2 -2 -2 -2 -1 -1 -1 -1 -0 1 3 3 2 2 2 2 2 3 3 2 1 -1 -2 -2 -2 -1 -1 -0 0 0 1 1 1 0 -1 -1 -0 1 2
-5 -5 -5 -7 -8 -7 -8 -9 -8 -8 -9 -6 -7 -8 -7 -5 -6 -6 -3 -5 -4 -3 -3 -3 -1 -0 -2 -1 -1 -1 -3 -2 -4 -5 -5 -5 -7 -7 -7 -8 -8 -7 -6 -5 -4 -1 -1 -1 -1 -1 -2 -1 0 1 1 4 5 4 2 0 -1 -1 -1 -1 -2 -2 -2 -2 -2 -1 -1 -1 0 1 2 3 3 3 3 2 2 2 1 -0 -1 -3 -3 -3 -2 -1 0 1 1 1 1 1 0 -0 -1 -2 -1 -0 1
-7 -6 -5 -8 -7 -6 -8 -9 -8 -7 -9 -5 -6 -8 -7 -4 -6 -8 -4 -4 -4 -4 -3 -3 -2 -1 -1 -2 -0 0 -2 -0 -1 -3 -4 -3 -4 -6 -5 -6 -7 -7 -7 -6 -5 -3 -3 -2 -1 -2 -3 -1 -1 -0 1 4 5 4 4 2 -0 -1 -2 -1 -1 -2 -2 -2 -2 -2 -0 -0 0 1 1 3 3 3 1 1 0 -1 -1 -2 -3 -4 -4 -2 -1 0 1 1 1 0 -0 -1 -1 -1 -1 -1 -1 -1 -1
-8 -8 -6 -8 -7 -6 -7 -8 -8 -7 -7 -5 -6 -7 -6 -3 -5 -7 -5 -3 -4 -4 -3 -3 -2 -2 -2 -2 -1 -0 -2 1 -0 -2 -3 -1 -3 -5 -3 -5 -6 -7 -5 -6 -6 -5 -4 -2 -2 -2 -3 -2 -2 -1 2 3 4 4 4 3 1 -0 -2 -1 -1 -1 -2 -2 -2 -2 -1 0 0 1 1 2 2 1 1 -0 -1 -1 -0 0 0 -0 -1 -0 -0 -0 -0 -1 -1 -2 -2 -1 -1 -1 -0 0 0 -0 -1
-7 -8 -8 -7 -7 -7 -6 -6 -7 -7 -5 -5 -6 -6 -4 -3 -6 -7 -4 -3 -5 -6 -3 -3 -3 -3 -3 -2 -2 -2 -2 1 -1 -3 -2 -0 -2 -4 -2 -4 -4 -4 -4 -6 -6 -4 -3 -3 -3 -3 -3 -3 -2 -1 2 1 3 4 5 4 2 1 -1 -1 -1 -1 -1 -2 -2 -2 -2 -0 1 1 1 1 1 0 1 0 0 1 3 4 4 3 2 1 0 -1 -2 -2 -2 -1 -1 -1 -0 0 1 1 1 0 0
-6 -6 -7 -6 -7 -7 -5 -5 -6 -7 -4 -5 -6 -6 -4 -4 -6 -7 -4 -4 -6 -6 -4 -4 -4 -4 -2 -2 -3 -3 -1 -1 -3 -4 -1 1 -1 -3 -3 -2 -3 -4 -4 -4 -4 -4 -4 -4 -4 -3 -3 -3 -2 -1 -0 0 2 4 4 4 3 2 0 -1 -1 -1 -1 -1 -2 -2 -2 -1 0 1 1 0 0 1 1 1 2 3 4 5 4 4 2 1 0 -1 -1 -1 0 0 0 0 0 1 1 1 1 1 1
-6 -6 -5 -5 -6 -6 -6 -6 -6 -6 -5 -6 -6 -6 -5 -5 -6 -6 -5 -6 -6 -6 -5 -5 -5 -4 -2 -3 -3 -2 -1 -4 -5 -4 -2 -0 -1 -3 -2 -0 -2 -4 -2 -1 -3 -6 -5 -3 -2 -3 -4 -3 -3 -3 -1 1 2 3 3 3 3 3 2 0 -1 -1 -1 -1 -1 -1 -2 -1 -0 1 1 1 1 1 1 2 2 3 4 4 4 3 2 2 1 1 1 1 1 1 1 0 0 1 1 1 2 2 2
-6 -6 -4 -5 -5 -5 -4 -6 -6 -5 -6 -6 -6 -6 -6 -6 -6 -6 -5 -6 -6 -6 -6 -6 -6 -5 -3 -3 -3 -2 -1 -4 -4 -3 -3 -2 -2 -2 -0 0 -2 -4 0 -1 -4 -6 -1 -1 -2 -4 -3 -2 -3 -3 0 2 2 2 2 3 3 3 2 2 0 -1 -2 -1 -1 -1 -1 -1 -1 -0 1 2 2 2 1 1 2 3 4 4 3 3 3 2 1 1 1 1 1 1 1 0 1 1 1 1 2 2 2
-5 -4 -5 -4 -5 -5 -4 -5 -5 -6 -6 -6 -6 -6 -6 -6 -6 -6 -6 -6 -6 -6 -7 -6 -6 -6 -5 -4 -3 -3 -2 -3 -3 -3 -4 -4 -3 -1 0 -2 -3 -2 1 -2 -4 -3 1 -1 -4 -5 -1 -1 -3 -4 -0 1 1 2 3 3 3 2 2 2 1 -1 -2 -2 -1 -0 -1 -1 -1 -1 0 1 2 2 1 1 1 2 3 3 3 3 2 1 0 -0 -0 -0 0 1 1 1 1 2 2 2 2 2 2
-5 -4 -4 -4 -4 -5 -6 -5 -5 -5 -6 -6 -6 -6 -6 -6 -6 -5 -6 -5 -5 -5 -6 -5 -6 -7 -5 -4 -4 -4 -2 -1 -3 -4 -4 -3 -2 -1 -0 -4 -3 -0 1 -3 -3 -1 1 -3 -4 -4 1 -2 -5 -5 -0 1 1 2 4 3 2 2 2 2 1 0 -2 -2 -1 -0 -0 -1 -2 -1 -0 1 2 2 2 1 2 3 4 4 4 3 1 1 -0 -1 -2 -2 -1 -1 -0 1 2 3 2 2 2 2 2
-4 -4 -4 -4 -4 -4 -5 -6 -5 -4 -5 -5 -5 -5 -5 -6 -5 -4 -6 -4 -4 -5 -4 -4 -5 -6 -3 -4 -5 -4 -2 -1 -3 -5 -3 -2 -2 -2 -2 -4 -2 1 -1 -4 -2 1 1 -3 -3 -1 0 -4 -5 -3 0 -0 1 3 4 3 2 2 2 2 2 1 0 -1 -1 -1 -0 -1 -1 -2 -1 0 2 2 2 2 2 3 4 4 4 3 2 1 0 -1 -2 -2 -2 -2 -1 -0 1 3 3 2 2 2 1
-4 -5 -4 -4 -4 -4 -4 -5 -5 -5 -4 -4 -5 -5 -4 -6 -5 -4 -4 -4 -4 -4 -3 -4 -4 -3 -2 -4 -5 -4 -2 -2 -4 -4 -2 -1 -2 -4 -5 -3 -1 0 -3 -3 0 3 -0 -4 -1 1 -1 -4 -4 -2 -2 -1 2 4 3 3 3 2 1 1 2 2 2 0 -1 -1 -0 -0 -1 -2 -1 -0 1 2 3 3 3 4 4 4 4 3 2 2 1 0 -1 -2 -3 -3 -2 -1 1 2 2 2 1 1 1
-4 -4 -5 -4 -4 -4 -4 -4 -4 -4 -4 -4 -4 -4 -3 -4 -5 -4 -3 -4 -3 -2 -2 -4 -3 -2 -3 -4 -4 -4 -3 -3 -4 -4 -1 -1 -4 -5 -4 -1 -1 -2 -4 -1 1 1 -3 -3 1 2 -3 -4 -4 -4 -5 0 2 2 2 5 4 2 1 2 2 2 2 1 -0 -1 -1 -0 -0 -1 -1 -0 1 2 3 4 4 4 4 4 4 4 3 3 2 1 0 -1 -2 -2 -2 -0 1 2 2 2 1 1 0
-4 -4 -4 -5 -5 -4 -4 -4 -4 -3 -4 -3 -4 -4 -4 -4 -4 -4 -3 -3 -3 -2 -1 -3 -3 -2 -2 -1 -2 -4 -4 -3 -3 -4 -1 -2 -4 -4 -1 -1 -3 -4 -3 -0 0 -1 -3 0 2 1 -4 -4 -4 -4 -1 1 -0 -1 3 5 4 2 2 2 2 2 2 1 0 -0 -1 -0 -0 -0 -1 -0 1 2 3 3 4 4 4 4 4 3 3 3 2 2 1 0 -0 -1 -1 0 2 3 3 2 1 0 -1
-5 -4 -4 -4 -5 -5 -4 -4 -4 -3 -3 -3 -3 -4 -4 -4 -4 -4 -3 -3 -2 -2 -1 -2 -2 -3 -2 0 -1 -3 -4 -2 -3 -4 -2 -2 -3 -3 -1 -2 -4 -4 -2 -1 -1 -2 -1 2 2 -0 -3 -3 -2 -1 -0 -3 -3 -0 4 4 3 3 4 3 2 1 2 1 1 0 -1 -1 -0 0 0 0 1 1 2 3 3 4 4 4 4 3 3 3 3 3 2 1 0 -0 0 1 2 2 2 2 1 -1 -2
-5 -5 -5 -5 -5 -5 -4 -4 -4 -3 -3 -3 -3 -3 -4 -4 -4 -3 -3 -3 -2 -1 -1 -1 -1 -2 -2 -0 -1 -2 -2 -2 -3 -3 -2 -2 -2 -2 -1 -3 -4 -4 -2 -1 -2 -2 -0 1 1 -1 -2 -1 0 0 -5 -5 -2 2 3 2 3 3 4 3 2 1 2 2 1 1 0 -1 -0 0 1 1 1 1 1 2 3 3 4 4 4 4 3 4 4 3 2 1 -0 -0 0 1 1 2 1 1 -0 -1 -2
-5 -5 -5 -5 -6 -6 -5 -5 -4 -4 -2 -3 -2 -2 -3 -4 -4 -3 -4 -2 -2 -2 -1 -0 -0 -1 -1 -1 -1 -1 -1 -2 -2 -2 -2 -2 -1 -1 -1 -2 -3 -3 -2 -2 -3 -3 -0 0 0 -0 -1 0 -0 -3 -7 -2 1 1 -1 0 2 4 5 3 2 1 2 2 2 2 1 -0 -0 0 2 1 1 0 0 1 2 3 4 5 4 4 4 4 4 4 2 1 -0 -1 -1 0 1 1 1 0 -1 -1 -2
-6 -5 -5 -5 -5 -6 -6 -5 -5 -4 -3 -3 -2 -2 -2 -3 -3 -3 -4 -3 -2 -2 -2 0 0 0 0 -0 -0 -0 -0 -1 -1 -1 -2 -2 -1 -0 -1 -2 -2 -2 -1 -3 -4 -3 0 -0 -1 -0 0 0 -2 -4 -3 2 1 -2 -4 -1 3 5 5 2 1 1 2 2 2 2 1 1 -0 -0 1 1 1 -0 -0 1 2 4 4 5 4 4 4 4 4 4 3 1 0 -0 -0 0 1 1 0 -1 -2 -2 -3
-7 -6 -6 -5 -5 -5 -6 -6 -5 -5 -4 -3 -2 -2 -2 -3 -3 -3 -3 -3 -2 -2 -2 -1 1 1 1 0 -0 -0 -1 -1 -1 -1 -1 -1 -0 0 -0 -1 -1 -1 -1 -3 -3 -2 -0 -1 -1 -0 -0 -1 -2 -2 1 2 -1 -4 -2 2 3 3 2 1 1 2 3 2 3 3 2 2 1 -0 0 1 0 -0 -0 1 3 4 4 4 4 4 4 4 4 4 3 2 2 2 1 1 1 1 -0 -1 -2 -3 -3
-7 -7 -6 -6 -6 -6 -6 -6 -6 -5 -5 -4 -3 -2 -3 -2 -2 -2 -2 -2 -2 -2 -2 -2 -0 1 1 1 0 -0 -1 -1 -1 -1 -0 0 1 1 -0 -0 -0 -1 -2 -3 -2 -1 -2 -2 -2 -1 -2 -2 -1 0 2 0 -2 -2 1 1 0 -0 2 1 2 3 2 2 3 3 3 2 1 0 -1 -0 -0 -0 -0 1 3 4 4 4 4 4 4 4 4 4 4 3 2 2 2 2 2 1 1 -0 -1 -2 -2
-7 -7 -7 -7 -6 -6 -6 -6 -6 -6 -5 -5 -4 -3 -3 -3 -2 -2 -2 -2 -2 -2 -1 -1 -1 -0 1 1 1 -0 -2 -1 -1 -1 -0 1 1 1 0 1 1 0 -1 -1 -1 -2 -3 -3 -2 -3 -2 -1 -0 0 1 -1 -1 -0 1 -3 -2 1 5 2 2 2 0 2 3 4 3 2 2 1 -0 -1 -1 -0 0 2 3 4 4 4 4 4 4 4 4 4 4 3 3 2 1 1 1 1 1 1 1 1 0
-7 -7 -6 -6 -6 -6 -6 -6 -6 -6 -6 -5 -5 -4 -4 -4 -3 -3 -2 -2 -2 -2 -1 -1 -1 -1 1 2 1 0 -1 -2 -2 -1 -1 -0 0 0 1 2 2 1 0 -0 -1 -2 -3 -2 -3 -3 -1 -1 -1 -1 -0 -0 0 -0 -3 -4 1 6 2 0 0 1 -1 2 4 4 3 3 3 2 1 -0 -0 0 1 2 3 3 4 4 4 4 4 5 5 5 4 3 2 1 1 1 1 1 1 1 2 2 2
-7 -7 -6 -6 -6 -6 -6 -6 -6 -6 -6 -5 -5 -5 -5 -4 -4 -4 -3 -3 -2 -2 -2 -1 -0 -0 0 1 2 1 -0 -2 -2 -2 -2 -1 -1 1 2 2 2 2 3 0 -1 -1 -2 -3 -4 -4 -2 -2 -1 0 1 1 -0 -2 -5 0 4 3 -4 -0 0 -0 -1 3 4 3 2 4 3 2 1 -0 -0 1 3 2 2 3 3 4 4 4 4 5 5 5 4 3 2 2 2 1 1 1 1 1 1 1 1
-6 -6 -6 -6 -5 -5 -5 -6 -6 -5 -5 -4 -4 -4 -5 -4 -4 -4 -4 -4 -4 -3 -2 -3 -1 0 1 0 1 2 2 -1 -2 -2 -2 -2 -1 1 2 2 3 3 3 1 0 0 -1 -3 -4 -4 -3 -2 0 2 1 -0 -2 -4 -3 2 0 -3 -3 2 1 -0 2 4 2 1 3 4 4 3 2 1 1 1 2 2 2 2 3 3 4 4 4 5 6 5 4 3 3 3 3 3 3 3 3 2 1 0 1
-5 -4 -5 -5 -5 -4 -4 -5 -5 -5 -4 -4 -3 -2 -2 -3 -4 -4 -3 -4 -4 -4 -2 -4 -4 -1 2 0 0 1 3 -0 -0 0 -1 -2 -2 -1 -1 2 4 3 0 1 1 1 -0 -3 -5 -4 -2 0 1 1 -1 -2 -3 -3 -1 -1 -2 -2 3 2 1 0 2 -0 -1 0 4 4 3 3 3 2 1 1 1 2 3 3 3 3 4 4 5 6 6 6 5 4 4 4 4 4 4 4 3 2 1 0 0
-5 -5 -4 -4 -5 -5 -4 -4 -4 -5 -4 -4 -3 -3 -2 -1 -2 -3 -2 -2 -4 -5 -4 -3 -4 -4 -0 1 0 0 3 1 1 1 -0 -3 -3 -3 -4 0 3 4 4 5 3 0 -1 -6 -6 -3 0 1 -0 -2 -3 -2 -2 -3 -2 -2 -1 0 2 1 0 -0 -0 -2 -0 3 5 3 3 3 4 3 2 1 1 3 3 3 3 3 4 4 5 5 6 6 5 5 5 6 5 5 4 4 2 1 1 1 1
-4 -5 -6 -5 -5 -5 -5 -5 -5 -6 -5 -4 -4 -4 -4 -2 -1 -2 -2 -2 -3 -4 -5 -4 -4 -4 -4 0 1 0 1 2 1 -0 -1 -2 -2 -1 -1 1 2 4 10 8 4 -0 -5 -8 -5 1 2 1 -2 -3 -2 -1 -3 -4 -2 -1 -1 -1 0 0 0 0 0 0 2 3 3 2 3 4 4 3 2 1 1 3 3 3 3 4 4 5 5 5 6 6 6 6 6 6 5 4 3 2 0 -0 -0 0 1
-4 -5 -5 -6 -6 -6 -6 -6 -6 -7 -6 -5 -4 -4 -5 -4 -3 -2 -2 -2 -3 -4 -3 -6 -5 -3 -3 -2 -0 1 -0 2 1 0 -0 -1 -0 1 0 -0 -0 1 5 4 6 3 -7 -7 -2 2 1 0 -2 -3 -1 -2 -3 -4 -0 -1 -2 -1 3 1 0 0 0 -1 -0 1 1 1 3 4 3 3 2 2 2 3 3 3 4 4 5 5 5 5 5 6 7 7 7 6 3 1 0 0 -0 -1 -0 0 2
-5 -6 -5 -6 -6 -6 -6 -6 -6 -7 -7 -6 -5 -4 -5 -4 -4 -4 -3 -3 -3 -4 -2 -5 -5 -4 -3 -4 -2 0 1 1 1 1 -0 -2 -0 1 -1 -2 -0 1 1 3 5 5 -0 -1 -2 -1 -1 -2 -3 -3 -2 -4 -4 -2 -1 -3 -1 1 2 -1 -2 -1 -2 -3 0 3 2 1 2 3 3 2 2 3 4 3 4 4 5 5 5 5 5 5 6 6 7 7 6 4 1 -1 -1 -1 -1 -1 0 2 3
-5 -6 -6 -6 -6 -7 -8 -7 -7 -7 -6 -6 -5 -4 -5 -5 -4 -4 -3 -3 -3 -4 -4 -4 -4 -4 -4 -5 -4 -2 2 2 2 1 0 -1 -1 -1 -1 0 2 4 4 5 5 4 5 1 -1 -3 -3 -3 -3 -2 -2 -2 -2 -2 -3 -2 -1 -0 -2 -3 -2 -1 -2 2 5 5 -0 -0 1 3 2 2 3 5 4 3 4 5 6 5 5 5 5 5 6 6 6 6 3 0 -3 -4 -4 -4 -3 -1 1 2 4
-5 -6 -7 -7 -7 -7 -7 -8 -8 -7 -6 -5 -4 -4 -4 -5 -5 -5 -4 -4 -4 -4 -4 -4 -4 -4 -4 -4 -4 -3 1 3 2 1 1 -0 -1 -0 0 1 0 0 3 1 2 3 2 2 1 -0 -0 -1 -3 -4 0 -1 -2 -4 -3 -2 -1 -1 -1 -1 -1 -0 1 4 4 0 -4 -0 2 2 -1 2 4 5 3 3 4 5 5 6 5 5 5 5 5 5 4 1 -2 -5 -7 -6 -6 -5 -4 -1 1 2 2
-5 -5 -6 -7 -7 -7 -7 -7 -7 -7 -6 -5 -4 -4 -4 -5 -6 -6 -6 -5 -5 -4 -4 -3 -3 -4 -4 -4 -4 -3 0 2 2 1 1 0 0 0 0 -1 -1 -1 -0 -1 1 3 2 3 1 1 7 -0 -6 -6 2 -3 -5 -4 -2 -2 -1 -0 -0 -1 -2 -1 1 1 -1 -3 -2 2 1 -0 -1 3 4 3 2 4 5 6 6 6 5 5 5 5 4 2 -1 -5 -8 -10 -9 -7 -6 -4 -2 0 1 2 1
-4 -5 -5 -6 -6 -6 -6 -6 -6 -6 -6 -6 -5 -5 -5 -5 -6 -6 -6 -5 -5 -5 -5 -4 -4 -3 -4 -3 -3 -2 -1 0 1 2 1 1 1 0 0 -0 0 2 2 3 3 3 5 3 1 2 6 -1 -3 -1 -2 -6 -4 -2 -2 -1 -0 0 -1 -3 -3 -2 -1 -0 -0 1 3 2 0 -1 1 3 2 2 4 6 6 5 6 6 5 5 6 5 3 0 -3 -7 -9 -8 -5 -3 -3 -2 1 2 3 3 1
-4 -4 -5 -5 -5 -4 -4 -4 -4 -5 -5 -6 -6 -5 -5 -5 -5 -6 -6 -5 -5 -4 -5 -5 -4 -4 -3 -3 -2 -2 -2 -1 0 2 3 3 1 -0 0 -0 -0 1 2 3 3 4 5 2 2 2 -1 -0 4 4 -8 -7 -3 0 -2 -1 -1 -1 -2 -3 -3 -2 0 1 2 3 2 -0 -1 -0 1 0 1 2 6 6 5 5 6 5 5 6 6 4 2 -0 -3 -4 -3 -1 2 2 1 2 4 4 4 4 1
-4 -4 -4 -4 -4 -4 -3 -3 -4 -4 -5 -5 -5 -5 -4 -4 -4 -5 -6 -6 -5 -4 -4 -4 -4 -4 -3 -3 -2 -2 -2 -1 1 3 4 3 1 -0 1 0 -0 0 2 2 3 4 4 3 2 1 -2 2 4 1 -6 -3 -2 -3 -5 -2 -1 -1 -2 -3 -2 -1 0 1 2 2 0 -1 -1 -0 -1 -1 1 3 5 5 5 6 6 6 6 6 5 3 1 -1 -3 -2 0 3 5 5 5 5 5 5 5 4 1
Height
5808 5807 5806 5805 5804 5804 5803 5803 5802 5801 5801 5800 5799 5799 5799 5798 5798 5798 5797 5797 5796 5796 5796 5796 5797 5797 5797 5797 5797 5798 5798 5798 5799 5799 5798 5797 5796 5796 5797 5798 5798 5799 5800 5801 5802 5803 5804 5804 5805 5805 5805 5805 5805 5806 5806 5807 5808 5809 5811 5813 5814 5815 5816 5817 5818 5819 5821 5822 5824 5825 5826 5827 5827 5828 5829 5831 5833 5834 5834 5835 5836 5837 5839 5840 5841 5842 5843 5843 5844 5845 5846 5847 5848 5849 5849 5850 5851 5852 5853 5854 5855 5856 5858
5803 5802 5801 5800 5799 5799 5798 5798 5797 5797 5796 5795 5795 5794 5794 5794 5793 5793 5793 5792 5792 5792 5792 5792 5792 5792 5792 5792 5793 5793 5793 5794 5794 5794 5794 5793 5792 5792 5793 5794 5794 5795 5796 5797 5798 5799 5799 5799 5800 5800 5801 5801 5802 5802 5802 5802 5803 5805 5807 5809 5810 5811 5812 5814 5815 5816 5817 5819 5820 5821 5823 5824 5824 5826 5827 5828 5830 5831 5832 5832 5833 5834 5837 5838 5838 5839 5840 5841 5841 5842 5843 5844 5845 5846 5847 5848 5849 5850 5851 5852 5853 5854 5855
5798 5797 5796 5795 5794 5794 5793 5792 5792 5791 5791 5790 5790 5789 5789 5789 5788 5788 5787 5787 5787 5786 5786 5786 5787 5787 5787 5787 5787 5788 5788 5788 5789 5789 5789 5788 5788 5788 5789 5789 5790 5791 5792 5793 5794 5794 5795 5795 5795 5796 5796 5797 5798 5798 5798 5799 5799 5801 5802 5804 5805 5807 5808 5809 5811 5812 5814 5815 5816 5818 5819 5820 5821 5822 5823 5825 5826 5827 5828 5830 5830 5831 5833 5834 5836 5837 5837 5838 5839 5840 5840 5842 5843 5844 5844 5846 5847 5848 5849 5849 5850 5852 5853
5793 5792 5791 5790 5789 5788 5788 5787 5786 5786 5785 5785 5784 5784 5784 5784 5783 5783 5782 5782 5781 5781 5781 5781 5781 5781 5782 5782 5782 5782 5782 5783 5783 5784 5783 5783 5784 5784 5785 5785 5786 5786 5787 5788 5789 5789 5790 5790 5791 5791 5792 5793 5793 5794 5794 5794 5795 5796 5798 5799 5801 5802 5804 5805 5807 5808 5810 5811 5813 5814 5815 5816 5818 5819 5820 5821 5823 5824 5824 5826 5827 5828 5829 5830 5832 5834 5835 5836 5836 5837 5838 5839 5840 5841 5842 5843 5844 5845 5847 5848 5849 5849 5850
5788 5787 5786 5785 5784 5783 5782 5781 5780 5779 5779 5779 5778 5778 5778 5778 5777 5777 5777 5777 5776 5776 5776 5775 5776 5776 5776 5776 5776 5776 5777 5777 5777 5778 5778 5778 5779 5779 5780 5781 5781 5782 5782 5783 5784 5784 5785 5785 5786 5787 5787 5788 5789 5789 5790 5790 5791 5792 5794 5795 5796 5798 5799 5800 5802 5804 5805 5807 5808 5810 5811 5812 5814 5814 5815 5817 5818 5820 5821 5823 5823 5824 5826 5827 5828 5829 5830 5833 5834 5835 5835 5837 5838 5839 5840 5841 5842 5843 5844 5846 5848 5849 5848
5783 5782 5781 5779 5778 5777 5776 5775 5774 5774 5773 5772 5772 5771 5771 5771 5771 5771 5771 5770 5770 5770 5770 5770 5770 5770 5770 5770 5770 5770 5771 5771 5771 5772 5772 5773 5773 5774 5775 5776 5777 5777 5777 5778 5778 5779 5779 5781 5781 5782 5783 5784 5784 5785 5785 5786 5787 5788 5789 5791 5792 5793 5794 5795 5797 5799 5801 5803 5804 5805 5807 5808 5809 5810 5811 5812 5814 5815 5817 5818 5820 5822 5824 5824 5824 5825 5827 5829 5831 5833 5834 5834 5835 5836 5837 5839 5839 5841 5843 5842 5843 5844 5845
5778 5776 5775 5774 5773 5771 5770 5769 5769 5768 5767 5766 5765 5765 5764 5764 5764 5764 5764 5764 5764 5764 5764 5764 5764 5764 5764 5764 5764 5764 5765 5765 5765 5766 5766 5767 5767 5768 5769 5770 5771 5772 5772 5773 5773 5773 5774 5775 5776 5777 5778 5779 5779 5780 5781 5782 5783 5784 5785 5786 5787 5788 5789 5790 5792 5794 5796 5798 5800 5801 5803 5804 5805 5806 5807 5809 5810 5811 5813 5815 5816 5818 5819 5821 5822 5822 5824 5825 5827 5829 5831 5833 5833 5834 5835 5836 5837 5838 5839 5839 5840 5842 5843
5772 5771 5769 5768 5767 5766 5764 5763 5762 5761 5760 5759 5759 5758 5758 5757 5757 5757 5757 5757 5757 5757 5757 5757 5757 5758 5758 5758 5758 5758 5759 5759 5759 5759 5760 5760 5761 5762 5763 5764 5765 5766 5767 5767 5768 5768 5769 5770 5771 5772 5773 5774 5775 5775 5776 5777 5778 5779 5780 5781 5782 5783 5784 5785 5787 5789 5791 5793 5795 5797 5798 5799 5801 5802 5804 5805 5806 5808 5809 5810 5812 5814 5816 5817 5819 5819 5820 5822 5824 5825 5826 5829 5831 5833 5834 5834 5834 5835 5837 5837 5838 5839 5840
5766 5765 5764 5762 5761 5759 5758 5757 5756 5755 5754 5753 5752 5752 5751 5750 5750 5750 5749 5749 5749 5749 5749 5749 5750 5750 5751 5751 5751 5752 5752 5752 5753 5753 5754 5754 5755 5755 5757 5758 5759 5760 5761 5761 5762 5762 5763 5764 5765 5767 5768 5769 5770 5770 5771 5772 5773 5774 5775 5776 5777 5778 5779 5781 5783 5784 5787 5789 5790 5792 5794 5795 5797 5799 5800 5802 5804 5805 5806 5807 5808 5810 5812 5813 5814 5816 5818 5819 5820 5822 5824 5825 5827 5828 5831 5832 5832 5833 5834 5834 5835 5837 5838
5760 5759 5757 5756 5754 5753 5752 5750 5749 5748 5747 5746 5745 5745 5744 5744 5743 5743 5742 5742 5742 5742 5742 5742 5742 5743 5743 5744 5744 5744 5745 5745 5746 5746 5747 5748 5748 5749 5750 5751 5752 5753 5754 5755 5756 5756 5757 5759 5760 5761 5762 5763 5764 5765 5766 5767 5768 5769 5770 5771 5772 5773 5774 5776 5778 5779 5782 5784 5785 5787 5789 5791 5793 5795 5796 5798 5800 5801 5802 5803 5804 5806 5808 5809 5811 5813 5814 5816 5817 5819 5820 5822 5823 5824 5827 5828 5830 5831 5832 5832 5833 5834 5835
5754 5752 5751 5749 5748 5746 5745 5744 5742 5741 5740 5739 5738 5738 5737 5736 5736 5735 5735 5735 5734 5734 5734 5734 5735 5735 5735 5736 5736 5737 5737 5738 5738 5739 5740 5741 5742 5743 5743 5744 5745 5746 5748 5749 5749 5750 5751 5753 5754 5755 5756 5758 5759 5760 5761 5762 5763 5764 5764 5765 5767 5768 5770 5772 5773 5775 5776 5778 5780 5782 5784 5786 5788 5790 5792 5794 5796 5797 5799 5800 5801 5802 5804 5805 5808 5809 5811 5812 5814 5816 5817 5819 5820 5821 5822 5824 5826 5828 5828 5829 5831 5832 5834
5747 5745 5744 5742 5741 5739 5738 5736 5735 5734 5733 5732 5731 5730 5729 5729 5728 5728 5727 5727 5727 5727 5727 5727 5727 5727 5728 5728 5729 5729 5729 5730 5730 5731 5732 5734 5734 5736 5737 5737 5738 5739 5740 5742 5743 5744 5745 5746 5748 5749 5750 5752 5753 5754 5755 5757 5758 5759 5759 5760 5761 5763 5764 5767 5769 5770 5771 5773 5775 5777 5779 5781 5783 5785 5788 5790 5791 5793 5794 5796 5797 5799 5800 5802 5804 5805 5807 5808 5810 5812 5813 5815 5817 5818 5819 5821 5822 5824 5825 5827 5829 5830 5832
5740 5739 5737 5735 5734 5732 5731 5729 5728 5726 5725 5724 5723 5722 5721 5720 5720 5720 5719 5719 5719 5719 5719 5719 5719 5719 5720 5720 5721 5721 5722 5722 5722 5723 5724 5726 5727 5728 5729 5730 5731 5732 5733 5734 5735 5737 5738 5740 5741 5743 5744 5745 5747 5748 5749 5751 5753 5753 5754 5755 5756 5757 5759 5761 5763 5765 5766 5768 5769 5772 5774 5776 5778 5781 5783 5785 5787 5789 5790 5792 5794 5795 5796 5798 5800 5802 5804 5805 5807 5809 5810 5812 5813 5815 5816 5818 5819 5820 5822 5823 5826 5828 5829
5733 5731 5729 5728 5726 5724 5723 5722 5720 5719 5718 5716 5715 5714 5713 5712 5712 5711 5711 5711 5711 5710 5710 5710 5711 5711 5711 5712 5712 5713 5714 5714 5714 5715 5716 5717 5719 5720 5722 5723 5724 5725 5726 5727 5728 5730 5731 5733 5734 5736 5737 5739 5740 5742 5743 5745 5747 5748 5749 5750 5751 5752 5754 5756 5758 5759 5761 5763 5765 5766 5768 5770 5773 5776 5778 5781 5783 5785 5786 5788 5789 5791 5793 5794 5796 5798 5800 5802 5804 5805 5808 5809 5810 5811 5813 5814 5816 5818 5820 5821 5822 5824 5825
5727 5724 5722 5720 5719 5717 5715 5714 5713 5711 5710 5709 5707 5706 5705 5704 5703 5703 5703 5702 5702 5702 5702 5702 5702 5703 5703 5703 5704 5704 5705 5706 5706 5707 5708 5709 5710 5712 5714 5715 5716 5718 5719 5720 5721 5723 5724 5726 5727 5729 5730 5732 5734 5735 5737 5739 5740 5742 5743 5744 5745 5747 5748 5750 5752 5754 5756 5758 5759 5761 5763 5765 5768 5770 5773 5776 5778 5780 5782 5784 5785 5787 5789 5791 5792 5794 5796 5799 5800 5801 5803 5805 5806 5807 5809 5811 5813 5814 5817 5819 5820 5821 5822
5720 5717 5715 5713 5711 5709 5707 5706 5704 5703 5701 5700 5699 5698 5697 5696 5695 5694 5694 5694 5694 5693 5693 5694 5694 5694 5694 5695 5695 5696 5697 5697 5698 5699 5699 5701 5702 5704 5705 5707 5708 5710 5711 5713 5714 5715 5717 5718 5720 5722 5724 5725 5727 5729 5730 5732 5734 5735 5737 5738 5739 5741 5743 5744 5746 5748 5750 5753 5754 5756 5758 5760 5763 5765 5768 5770 5773 5775 5777 5779 5781 5783 5785 5787 5789 5790 5792 5794 5796 5798 5799 5801 5802 5804 5806 5808 5809 5811 5813 5816 5817 5819 5820
5713 5710 5708 5705 5703 5701 5699 5697 5695 5694 5692 5691 5690 5689 5688 5686 5686 5685 5685 5684 5684 5684 5684 5684 5684 5685 5685 5686 5686 5687 5688 5689 5689 5690 5691 5692 5693 5695 5696 5698 5700 5701 5703 5705 5706 5708 5709 5711 5713 5714 5716 5718 5720 5722 5724 5725 5727 5729 5730 5732 5734 5735 5737 5739 5741 5743 5745 5747 5749 5751 5753 5755 5758 5760 5762 5765 5768 5770 5773 5775 5777 5779 5780 5782 5784 5787 5789 5790 5792 5794 5796 5797 5799 5801 5803 5804 5806 5808 5810 5813 5814 5816 5818
5706 5704 5701 5698 5695 5693 5691 5689 5687 5685 5683 5682 5680 5679 5678 5676 5676 5675 5675 5675 5674 5674 5674 5674 5675 5675 5676 5676 5677 5678 5679 5680 5681 5682 5683 5684 5685 5686 5688 5689 5691 5693 5694 5696 5698 5700 5702 5703 5705 5707 5709 5710 5712 5714 5716 5719 5720 5722 5724 5725 5727 5729 5731 5733 5735 5737 5739 5741 5743 5745 5748 5750 5752 5754 5757 5759 5762 5765 5768 5770 5772 5774 5776 5778 5780 5782 5784 5786 5788 5790 5792 5794 5795 5796 5798 5801 5803 5805 5807 5809 5810 5812 5815
5699 5696 5694 5691 5688 5685 5683 5680 5678 5676 5674 5672 5670 5669 5668 5666 5665 5664 5664 5664 5664 5664 5664 5664 5664 5665 5665 5666 5667 5668 5669 5670 5672 5673 5674 5675 5676 5677 5679 5680 5682 5684 5686 5688 5689 5692 5694 5696 5697 5699 5701 5703 5705 5707 5709 5711 5713 5715 5716 5718 5720 5723 5725 5727 5729 5731 5733 5735 5737 5740 5743 5745 5747 5749 5752 5754 5757 5759 5762 5765 5767 5769 5771 5773 5775 5777 5779 5782 5784 5786 5788 5789 5791 5793 5794 5796 5799 5802 5804 5805 5807 5808 5810
5690 5688 5685 5682 5680 5677 5674 5672 5669 5667 5665 5663 5661 5659 5658 5656 5654 5654 5653 5653 5653 5652 5652 5652 5653 5654 5654 5655 5656 5658 5659 5660 5662 5663 5665 5666 5667 5669 5670 5671 5673 5675 5677 5679 5681 5683 5685 5687 5689 5691 5693 5695 5697 5699 5702 5704 5706 5708 5709 5711 5714 5716 5718 5720 5723 5725 5727 5729 5732 5734 5737 5739 5742 5744 5746 5749 5751 5754 5757 5759 5762 5764 5766 5768 5770 5773 5775 5777 5779 5782 5783 5785 5788 5790 5791 5792 5794 5798 5800 5802 5804 5805 5806
5682 5679 5676 5674 5671 5668 5666 5663 5661 5658 5656 5654 5651 5649 5648 5646 5644 5643 5642 5642 5641 5641 5640 5640 5641 5641 5642 5643 5644 5646 5648 5649 5651 5653 5655 5656 5658 5659 5661 5663 5664 5666 5668 5669 5672 5674 5676 5679 5681 5683 5685 5687 5689 5692 5694 5696 5698 5700 5702 5704 5706 5709 5711 5714 5716 5718 5721 5723 5726 5728 5731 5733 5736 5738 5740 5743 5746 5748 5751 5754 5756 5759 5761 5763 5765 5768 5770 5773 5775 5778 5779 5781 5784 5786 5788 5789 5791 5794 5795 5798 5800 5802 5803
5674 5671 5668 5664 5662 5659 5656 5654 5651 5649 5647 5644 5642 5640 5638 5636 5635 5634 5632 5631 5631 5630 5629 5629 5629 5629 5629 5630 5632 5634 5635 5637 5639 5642 5644 5646 5648 5649 5651 5653 5655 5656 5658 5660 5663 5665 5667 5669 5672 5674 5677 5679 5681 5684 5686 5689 5691 5693 5695 5697 5699 5702 5704 5706 5709 5712 5714 5717 5719 5722 5724 5727 5730 5732 5735 5738 5740 5743 5745 5748 5751 5753 5756 5758 5760 5763 5765 5768 5771 5773 5775 5778 5779 5782 5784 5785 5788 5790 5792 5794 5796 5798 5800
5666 5663 5660 5656 5653 5650 5647 5644 5642 5640 5638 5635 5633 5631 5629 5627 5625 5624 5623 5621 5621 5620 5619 5618 5618 5618 5618 5618 5619 5621 5622 5624 5627 5629 5632 5634 5637 5639 5641 5643 5645 5647 5649 5651 5653 5656 5658 5660 5663 5666 5668 5671 5673 5676 5678 5680 5683 5685 5687 5689 5692 5694 5697 5699 5702 5705 5708 5710 5713 5716 5718 5721 5724 5726 5729 5732 5734 5737 5739 5742 5745 5748 5750 5753 5755 5758 5761 5764 5766 5769 5771 5773 5775 5778 5780 5782 5783 5785 5788 5789 5792 5794 5796
5658 5655 5652 5648 5645 5642 5639 5636 5633 5631 5628 5626 5624 5622 5620 5617 5616 5615 5613 5612 5611 5610 5609 5608 5608 5607 5607 5607 5608 5609 5609 5611 5613 5616 5619 5622 5625 5628 5630 5632 5634 5637 5639 5641 5644 5646 5648 5651 5654 5657 5659 5662 5664 5667 5670 5672 5675 5677 5679 5682 5684 5687 5689 5692 5695 5698 5700 5704 5706 5709 5712 5714 5717 5720 5723 5726 5728 5731 5733 5736 5739 5742 5745 5748 5750 5753 5756 5759 5761 5764 5766 5769 5771 5773 5775 5778 5780 5782 5784 5785 5787 5789 5791
5649 5646 5643 5639 5637 5634 5630 5627 5625 5622 5619 5616 5614 5613 5611 5608 5607 5605 5604 5603 5602 5601 5600 5599 5598 5597 5597 5597 5597 5597 5597 5599 5601 5603 5605 5608 5612 5615 5618 5621 5623 5626 5629 5631 5634 5636 5639 5641 5644 5647 5650 5653 5655 5659 5662 5664 5667 5669 5671 5674 5677 5679 5682 5685 5687 5690 5693 5696 5699 5702 5705 5708 5711 5714 5717 5719 5722 5724 5727 5730 5733 5737 5740 5743 5745 5748 5750 5753 5756 5759 5761 5764 5766 5768 5770 5773 5775 5778 5780 5782 5784 5786 5788
5641 5638 5634 5630 5627 5625 5621 5618 5616 5613 5610 5608 5605 5604 5602 5599 5597 5596 5595 5594 5592 5591 5591 5590 5589 5588 5588 5588 5588 5587 5587 5588 5589 5590 5592 5595 5599 5602 5605 5609 5611 5614 5618 5621 5624 5626 5629 5631 5634 5638 5640 5643 5646 5649 5653 5655 5658 5661 5663 5666 5669 5671 5674 5677 5680 5683 5686 5689 5692 5695 5698 5701 5704 5707 5710 5713 5716 5719 5721 5724 5728 5731 5734 5737 5740 5742 5745 5748 5750 5754 5756 5759 5762 5764 5766 5769 5771 5774 5776 5779 5780 5783 5786
5632 5629 5625 5621 5619 5616 5613 5609 5607 5604 5602 5599 5597 5594 5593 5590 5588 5587 5586 5584 5583 5582 5582 5581 5580 5579 5579 5579 5579 5578 5578 5578 5579 5579 5580 5583 5585 5589 5592 5595 5599 5602 5606 5609 5613 5615 5619 5621 5624 5627 5631 5634 5637 5640 5644 5647 5649 5652 5655 5658 5661 5664 5666 5669 5672 5675 5678 5681 5684 5688 5691 5694 5698 5701 5704 5707 5710 5713 5716 5719 5722 5725 5728 5731 5734 5736 5739 5742 5745 5749 5752 5755 5757 5760 5762 5764 5767 5769 5771 5774 5777 5779 5782
5624 5620 5617 5613 5610 5607 5604 5601 5598 5596 5593 5590 5588 5586 5584 5582 5580 5578 5577 5576 5574 5573 5572 5572 5571 5570 5570 5570 5569 5569 5569 5569 5569 5570 5570 5572 5574 5576 5579 5583 5586 5590 5594 5597 5601 5604 5608 5611 5614 5617 5620 5624 5627 5631 5634 5637 5640 5644 5646 5649 5652 5655 5659 5661 5664 5667 5671 5674 5677 5680 5684 5688 5691 5694 5697 5700 5703 5707 5709 5712 5715 5719 5722 5725 5728 5730 5734 5737 5740 5744 5747 5750 5753 5755 5758 5760 5762 5764 5766 5769 5772 5775 5777
5616 5612 5609 5605 5601 5598 5595 5592 5589 5587 5585 5582 5580 5578 5575 5574 5572 5571 5569 5568 5566 5565 5564 5563 5562 5561 5561 5561 5561 5561 5560 5560 5561 5561 5561 5562 5564 5565 5567 5570 5574 5577 5581 5585 5589 5593 5596 5599 5603 5606 5610 5614 5617 5621 5624 5628 5631 5634 5638 5641 5644 5647 5650 5654 5656 5659 5663 5666 5669 5673 5677 5680 5684 5687 5690 5694 5697 5700 5703 5706 5709 5712 5715 5719 5722 5725 5729 5732 5735 5739 5742 5744 5748 5750 5753 5755 5758 5760 5763 5765 5767 5770 5773
5608 5604 5601 5597 5593 5590 5587 5584 5581 5579 5577 5574 5572 5570 5568 5566 5564 5563 5561 5560 5559 5557 5556 5555 5554 5553 5553 5553 5553 5552 5552 5552 5552 5553 5553 5553 5554 5555 5557 5559 5562 5565 5569 5573 5577 5580 5584 5588 5591 5595 5599 5603 5607 5611 5615 5619 5622 5625 5628 5632 5635 5639 5642 5645 5649 5652 5655 5658 5662 5665 5669 5673 5676 5680 5684 5687 5690 5693 5696 5699 5703 5706 5710 5714 5718 5721 5724 5727 5730 5733 5736 5739 5742 5745 5748 5751 5753 5756 5759 5761 5764 5766 5768
5600 5596 5593 5589 5586 5582 5579 5576 5574 5571 5569 5567 5565 5563 5560 5558 5557 5555 5554 5552 5551 5550 5548 5547 5546 5545 5544 5544 5544 5544 5543 5543 5544 5544 5544 5545 5545 5546 5548 5549 5552 5554 5558 5561 5564 5568 5572 5576 5580 5584 5587 5591 5596 5600 5605 5609 5612 5615 5619 5622 5626 5630 5634 5637 5640 5644 5647 5651 5654 5658 5661 5665 5669 5673 5676 5680 5683 5686 5690 5694 5698 5701 5705 5709 5713 5716 5719 5722 5724 5727 5730 5734 5737 5740 5743 5746 5749 5752 5754 5757 5759 5762 5764
5593 5589 5585 5582 5578 5575 5572 5569 5566 5564 5561 5559 5557 5555 5552 5551 5549 5548 5546 5544 5544 5542 5540 5539 5538 5537 5536 5536 5535 5535 5534 5534 5535 5536 5536 5536 5537 5538 5539 5540 5542 5545 5547 5550 5553 5557 5560 5564 5568 5572 5576 5580 5584 5589 5594 5598 5602 5606 5609 5613 5617 5621 5624 5629 5632 5636 5639 5643 5646 5650 5654 5658 5661 5665 5669 5673 5676 5680 5684 5688 5692 5695 5699 5703 5706 5710 5713 5716 5719 5722 5725 5729 5732 5736 5739 5742 5745 5748 5750 5753 5756 5758 5760
5586 5582 5578 5575 5571 5568 5565 5562 5559 5556 5554 5552 5549 5547 5545 5543 5541 5540 5538 5537 5535 5534 5532 5531 5530 5529 5528 5528 5527 5526 5526 5526 5526 5527 5527 5528 5529 5530 5530 5531 5533 5535 5537 5540 5543 5546 5549 5553 5557 5560 5564 5568 5573 5578 5583 5588 5592 5596 5599 5603 5607 5611 5615 5619 5624 5627 5631 5635 5639 5642 5646 5650 5654 5658 5662 5666 5670 5674 5678 5681 5685 5689 5693 5696 5700 5703 5707 5710 5713 5716 5720 5723 5727 5730 5734 5737 5740 5743 5746 5749 5751 5754 5756
5579 5575 5571 5568 5564 5561 5558 5555 5552 5549 5546 5544 5542 5539 5537 5535 5533 5532 5530 5529 5527 5526 5524 5523 5522 5521 5520 5519 5519 5518 5518 5517 5518 5518 5519 5519 5520 5521 5522 5523 5524 5526 5528 5531 5534 5536 5539 5542 5546 5549 5552 5556 5561 5566 5571 5577 5581 5586 5589 5593 5597 5601 5606 5610 5614 5619 5623 5627 5630 5634 5638 5642 5646 5650 5654 5659 5663 5667 5671 5674 5678 5682 5686 5689 5693 5697 5700 5704 5707 5710 5714 5717 5721 5725 5728 5732 5735 5738 5741 5744 5747 5750 5752
5572 5569 5565 5561 5558 5554 5551 5548 5545 5542 5539 5537 5534 5531 5529 5527 5525 5524 5522 5520 5519 5518 5517 5515 5514 5513 5512 5512 5511 5510 5509 5509 5509 5509 5510 5511 5512 5512 5513 5514 5516 5517 5519 5521 5524 5526 5529 5532 5536 5539 5542 5545 5550 5555 5560 5565 5570 5575 5579 5583 5587 5591 5596 5601 5605 5610 5614 5618 5622 5626 5630 5634 5638 5642 5646 5651 5655 5659 5664 5667 5671 5675 5679 5683 5687 5690 5694 5697 5701 5704 5708 5711 5715 5719 5723 5726 5730 5734 5737 5739 5742 5745 5748
5566 5562 5559 5555 5551 5548 5544 5541 5538 5535 5532 5529 5527 5524 5522 5519 5518 5516 5514 5513 5511 5510 5509 5508 5507 5506 5505 5504 5503 5502 5501 5501 5501 5502 5502 5503 5503 5504 5505 5506 5507 5508 5510 5512 5515 5517 5520 5523 5526 5529 5532 5535 5539 5544 5548 5554 5559 5564 5569 5573 5577 5581 5586 5591 5596 5601 5605 5610 5614 5618 5622 5626 5630 5634 5639 5643 5648 5652 5656 5660 5665 5669 5673 5677 5680 5684 5688 5691 5694 5698 5701 5705 5709 5713 5717 5721 5725 5728 5731 5734 5738 5740 5743
5560 5556 5552 5549 5545 5542 5538 5535 5532 5529 5525 5522 5519 5517 5514 5512 5510 5509 5507 5505 5504 5503 5502 5501 5500 5499 5498 5497 5496 5495 5494 5494 5494 5494 5494 5494 5495 5496 5497 5498 5499 5500 5502 5504 5506 5508 5511 5514 5517 5519 5522 5525 5529 5533 5537 5543 5548 5553 5558 5563 5567 5571 5576 5581 5586 5592 5597 5601 5606 5610 5614 5619 5623 5627 5631 5636 5640 5645 5649 5654 5658 5662 5666 5670 5674 5677 5681 5685 5689 5692 5696 5699 5703 5707 5711 5715 5719 5723 5726 5729 5733 5735 5739
5554 5549 5546 5542 5539 5535 5532 5528 5525 5522 5519 5516 5513 5510 5508 5505 5503 5501 5500 5498 5497 5496 5495 5494 5493 5492 5491 5490 5489 5489 5488 5487 5488 5487 5487 5487 5488 5489 5489 5490 5490 5492 5494 5495 5497 5499 5502 5505 5507 5510 5513 5515 5519 5523 5527 5532 5537 5542 5547 5552 5556 5561 5566 5571 5576 5582 5588 5593 5598 5602 5606 5611 5615 5619 5624 5629 5633 5638 5642 5647 5651 5655 5659 5663 5667 5671 5675 5679 5683 5686 5690 5694 5697 5701 5705 5709 5714 5717 5721 5724 5727 5730 5734
5547 5544 5539 5536 5532 5529 5525 5522 5519 5515 5512 5509 5506 5503 5501 5499 5496 5494 5493 5492 5490 5489 5488 5487 5486 5485 5485 5484 5483 5482 5482 5481 5481 5481 5480 5480 5481 5482 5482 5482 5483 5484 5486 5487 5488 5490 5494 5496 5498 5500 5503 5507 5510 5514 5518 5522 5527 5532 5536 5541 5546 5551 5556 5561 5566 5572 5578 5584 5589 5594 5598 5603 5607 5612 5617 5621 5625 5630 5635 5639 5644 5648 5652 5657 5661 5665 5669 5673 5677 5680 5684 5688 5692 5696 5700 5704 5708 5712 5715 5719 5722 5725 5728
5541 5537 5533 5529 5526 5522 5519 5515 5512 5509 5506 5503 5500 5497 5494 5492 5490 5488 5486 5485 5484 5482 5481 5480 5480 5479 5479 5478 5477 5476 5475 5475 5475 5474 5474 5474 5475 5475 5475 5475 5476 5477 5478 5479 5481 5483 5485 5487 5489 5491 5494 5498 5501 5504 5509 5513 5517 5521 5526 5530 5535 5540 5546 5551 5557 5562 5568 5574 5579 5585 5590 5595 5599 5604 5609 5614 5618 5622 5627 5632 5636 5641 5645 5650 5654 5658 5662 5666 5670 5674 5678 5682 5686 5690 5694 5699 5703 5706 5710 5713 5717 5720 5723
5535 5531 5527 5523 5519 5516 5513 5509 5506 5503 5500 5497 5494 5491 5488 5486 5484 5482 5480 5479 5477 5476 5474 5474 5473 5473 5472 5472 5471 5470 5469 5469 5469 5469 5468 5469 5469 5469 5468 5469 5469 5470 5471 5472 5473 5475 5477 5478 5480 5483 5486 5489 5492 5496 5500 5504 5508 5512 5516 5520 5525 5530 5536 5541 5546 5552 5558 5564 5570 5576 5582 5587 5592 5597 5601 5606 5610 5615 5619 5624 5629 5634 5638 5643 5648 5652 5656 5660 5664 5668 5672 5676 5680 5684 5689 5693 5697 5701 5704 5708 5711 5714 5718
5529 5525 5521 5517 5514 5510 5507 5503 5500 5497 5494 5491 5488 5485 5482 5479 5477 5475 5474 5472 5471 5469 5468 5467 5466 5466 5466 5465 5465 5464 5464 5464 5463 5463 5463 5463 5463 5463 5463 5463 5464 5464 5464 5465 5466 5468 5469 5470 5472 5475 5477 5480 5483 5488 5492 5496 5499 5502 5506 5511 5516 5521 5525 5531 5536 5542 5548 5554 5561 5567 5573 5579 5584 5589 5594 5598 5603 5607 5611 5616 5621 5626 5631 5636 5641 5645 5649 5654 5658 5662 5666 5670 5674 5678 5683 5687 5691 5695 5699 5702 5706 5709 5713
5523 5519 5515 5511 5508 5504 5501 5497 5494 5491 5488 5485 5482 5479 5476 5474 5471 5469 5467 5465 5464 5463 5462 5461 5460 5459 5459 5459 5459 5459 5458 5458 5458 5457 5457 5457 5457 5457 5457 5457 5458 5458 5458 5459 5459 5461 5462 5463 5465 5467 5469 5472 5476 5480 5484 5487 5490 5494 5498 5502 5507 5511 5516 5521 5526 5532 5538 5545 5551 5558 5564 5569 5575 5580 5585 5590 5595 5599 5604 5609 5614 5619 5624 5629 5634 5639 5643 5648 5652 5656 5660 5664 5668 5672 5677 5681 5685 5689 5693 5697 5701 5704 5708
5517 5513 5509 5505 5502 5498 5495 5491 5488 5485 5482 5479 5476 5473 5470 5467 5465 5463 5460 5459 5458 5456 5455 5454 5454 5453 5452 5452 5452 5452 5452 5452 5452 5452 5452 5452 5452 5452 5452 5452 5452 5452 5452 5453 5454 5454 5455 5456 5458 5460 5462 5465 5468 5472 5475 5478 5482 5485 5489 5494 5498 5502 5506 5511 5517 5523 5529 5535 5542 5548 5554 5561 5567 5572 5577 5582 5587 5592 5597 5602 5607 5612 5618 5623 5627 5632 5636 5641 5645 5650 5654 5658 5662 5666 5671 5675 5679 5684 5687 5691 5695 5699 5703
5512 5508 5504 5500 5496 5493 5489 5486 5483 5479 5476 5473 5470 5467 5464 5461 5459 5456 5454 5452 5451 5449 5448 5448 5447 5446 5445 5445 5445 5445 5445 5446 5446 5446 5446 5447 5447 5447 5447 5447 5447 5447 5447 5448 5448 5448 5449 5450 5451 5453 5455 5458 5461 5464 5467 5470 5474 5477 5481 5485 5489 5493 5498 5503 5508 5513 5519 5526 5532 5539 5545 5552 5558 5563 5569 5574 5579 5584 5589 5595 5600 5605 5610 5615 5620 5625 5630 5634 5639 5644 5648 5652 5657 5661 5665 5670 5674 5678 5682 5686 5690 5694 5698
5506 5502 5498 5494 5491 5487 5483 5480 5477 5474 5470 5467 5464 5461 5458 5455 5453 5450 5448 5446 5444 5443 5441 5440 5440 5439 5439 5438 5438 5438 5438 5439 5439 5440 5441 5441 5441 5441 5442 5442 5442 5442 5442 5442 5442 5442 5443 5444 5445 5447 5449 5451 5453 5456 5459 5462 5466 5469 5473 5477 5481 5485 5490 5494 5499 5504 5510 5516 5523 5529 5536 5543 5549 5554 5560 5566 5571 5577 5583 5588 5593 5598 5603 5608 5613 5618 5623 5628 5633 5637 5642 5647 5651 5655 5659 5664 5668 5672 5677 5681 5685 5689 5694
5501 5497 5493 5489 5485 5481 5478 5474 5471 5468 5464 5461 5458 5455 5452 5449 5446 5444 5441 5439 5438 5436 5435 5434 5433 5432 5432 5431 5431 5431 5431 5432 5433 5434 5434 5435 5436 5436 5437 5437 5437 5437 5437 5437 5437 5437 5438 5439 5439 5441 5442 5444 5447 5449 5452 5455 5458 5461 5465 5469 5473 5477 5482 5486 5490 5495 5501 5508 5514 5520 5527 5533 5540 5546 5552 5558 5563 5569 5575 5581 5586 5591 5596 5601 5606 5611 5616 5621 5626 5631 5636 5641 5645 5649 5653 5658 5662 5667 5672 5676 5681 5685 5689
5495 5491 5488 5484 5480 5476 5472 5469 5465 5462 5458 5455 5452 5449 5445 5443 5440 5437 5435 5433 5431 5429 5428 5427 5426 5425 5425 5424 5424 5424 5424 5425 5426 5427 5428 5429 5430 5431 5431 5432 5432 5432 5432 5432 5432 5432 5433 5433 5434 5435 5436 5438 5441 5443 5446 5448 5451 5454 5458 5462 5465 5469 5474 5478 5482 5488 5493 5499 5505 5511 5518 5524 5531 5537 5543 5549 5555 5562 5568 5574 5579 5583 5588 5594 5599 5604 5609 5615 5620 5625 5630 5634 5639 5643 5647 5652 5656 5661 5666 5671 5675 5680 5684
5490 5486 5482 5479 5474 5471 5467 5463 5459 5456 5452 5449 5445 5442 5439 5436 5433 5430 5428 5425 5423 5422 5420 5420 5419 5418 5418 5418 5417 5417 5417 5417 5418 5420 5422 5423 5424 5425 5426 5427 5427 5428 5427 5427 5427 5428 5428 5428 5428 5429 5431 5433 5435 5437 5439 5441 5444 5447 5451 5454 5458 5463 5466 5470 5475 5480 5485 5490 5497 5503 5509 5515 5522 5528 5535 5541 5547 5554 5560 5566 5571 5576 5581 5586 5592 5597 5603 5608 5614 5619 5624 5628 5633 5637 5641 5646 5651 5656 5660 5665 5670 5674 5679
5485 5481 5477 5473 5469 5465 5461 5457 5453 5450 5446 5443 5439 5435 5432 5429 5426 5423 5420 5418 5415 5414 5413 5412 5411 5411 5411 5410 5410 5410 5410 5410 5411 5413 5415 5416 5417 5418 5420 5421 5422 5422 5422 5423 5423 5423 5423 5423 5424 5424 5426 5428 5430 5431 5432 5434 5437 5440 5444 5448 5452 5455 5459 5463 5467 5472 5477 5483 5489 5494 5500 5507 5513 5520 5526 5533 5539 5545 5552 5558 5564 5569 5574 5579 5585 5590 5596 5602 5607 5612 5617 5622 5627 5631 5636 5640 5645 5650 5655 5659 5664 5669 5673
5480 5476 5472 5468 5464 5459 5455 5451 5447 5443 5440 5436 5432 5429 5425 5421 5418 5415 5412 5409 5407 5405 5404 5403 5403 5403 5403 5403 5403 5403 5403 5403 5404 5406 5407 5408 5410 5412 5414 5415 5416 5417 5417 5418 5418 5418 5418 5418 5419 5420 5422 5424 5424 5425 5426 5428 5431 5434 5437 5441 5445 5449 5452 5456 5460 5464 5470 5476 5481 5487 5492 5498 5504 5511 5518 5524 5531 5537 5544 5550 5556 5561 5567 5572 5578 5584 5589 5595 5600 5606 5611 5616 5621 5625 5630 5634 5639 5644 5649 5654 5658 5663 5668
5475 5471 5466 5462 5458 5454 5449 5445 5440 5436 5432 5429 5424 5420 5417 5413 5409 5405 5403 5400 5398 5396 5395 5394 5394 5394 5395 5395 5394 5395 5396 5396 5397 5399 5400 5401 5403 5406 5407 5409 5411 5413 5412 5413 5413 5413 5413 5414 5415 5416 5418 5419 5419 5419 5421 5423 5425 5428 5431 5435 5439 5442 5445 5449 5453 5458 5463 5469 5474 5479 5484 5490 5496 5503 5509 5516 5523 5529 5536 5542 5548 5554 5560 5565 5571 5577 5582 5588 5593 5599 5604 5610 5614 5619 5624 5628 5633 5638 5642 5647 5652 5657 5662
5470 5465 5461 5456 5452 5447 5443 5438 5433 5429 5424 5419 5415 5411 5406 5403 5399 5395 5392 5390 5388 5386 5385 5384 5384 5385 5385 5386 5387 5387 5388 5389 5389 5391 5392 5394 5396 5399 5401 5403 5405 5406 5407 5408 5408 5408 5408 5409 5410 5413 5414 5413 5413 5414 5416 5418 5420 5423 5425 5429 5433 5436 5439 5443 5447 5451 5457 5462 5467 5471 5477 5483 5489 5495 5501 5508 5514 5521 5528 5534 5541 5547 5553 5558 5564 5569 5575 5581 5586 5592 5598 5603 5608 5612 5616 5621 5626 5631 5636 5641 5646 5652 5657
5465 5460 5455 5450 5446 5441 5436 5431 5425 5420 5415 5409 5404 5400 5395 5391 5387 5384 5381 5378 5376 5375 5374 5374 5374 5374 5375 5377 5378 5379 5380 5381 5382 5383 5385 5387 5389 5392 5394 5396 5397 5399 5401 5404 5404 5403 5403 5404 5406 5408 5409 5408 5409 5410 5412 5413 5415 5417 5420 5424 5427 5430 5433 5437 5441 5445 5450 5455 5460 5464 5470 5475 5481 5487 5493 5500 5507 5513 5520 5527 5533 5539 5545 5551 5557 5562 5568 5574 5579 5585 5590 5596 5600 5605 5609 5614 5619 5625 5630 5635 5641 5646 5652
5460 5455 5450 5445 5439 5434 5429 5423 5417 5411 5405 5399 5394 5389 5384 5380 5376 5373 5369 5367 5365 5363 5362 5362 5363 5364 5365 5366 5368 5370 5372 5374 5374 5376 5377 5379 5382 5385 5386 5389 5392 5394 5397 5398 5398 5398 5398 5400 5402 5403 5404 5404 5405 5407 5408 5409 5410 5412 5415 5418 5421 5424 5428 5431 5435 5439 5444 5449 5453 5458 5463 5469 5474 5479 5485 5492 5499 5505 5512 5519 5525 5532 5538 5544 5549 5555 5560 5566 5572 5577 5583 5588 5592 5597 5602 5607 5613 5619 5624 5630 5636 5641 5646
5455 5450 5444 5439 5433 5427 5421 5415 5408 5402 5396 5390 5384 5379 5375 5370 5367 5363 5360 5357 5354 5352 5351 5351 5351 5352 5354 5355 5357 5360 5364 5365 5367 5368 5370 5372 5374 5377 5379 5383 5386 5389 5390 5391 5392 5393 5394 5396 5398 5399 5399 5400 5402 5403 5403 5404 5405 5408 5410 5413 5416 5419 5423 5426 5429 5434 5438 5442 5446 5451 5457 5462 5467 5472 5478 5484 5490 5497 5504 5511 5518 5524 5530 5536 5542 5547 5553 5558 5564 5569 5574 5579 5584 5589 5594 5600 5606 5613 5619 5624 5630 5636 5640
5450 5445 5439 5433 5427 5420 5413 5406 5399 5393 5387 5382 5377 5372 5367 5363 5359 5355 5351 5348 5345 5343 5341 5340 5340 5341 5342 5344 5346 5350 5354 5356 5359 5360 5362 5364 5367 5370 5373 5376 5378 5380 5383 5384 5387 5389 5390 5392 5394 5395 5394 5396 5397 5398 5398 5400 5402 5404 5406 5408 5411 5414 5417 5420 5424 5428 5432 5436 5441 5446 5451 5455 5460 5465 5471 5477 5483 5490 5497 5504 5510 5516 5523 5529 5534 5539 5545 5550 5556 5561 5566 5571 5576 5581 5588 5594 5601 5607 5614 5620 5625 5630 5635
5446 5440 5434 5427 5420 5413 5406 5399 5392 5386 5380 5375 5370 5365 5361 5356 5352 5348 5344 5341 5338 5335 5333 5331 5330 5331 5331 5333 5335 5339 5343 5346 5350 5353 5355 5357 5360 5363 5365 5368 5371 5374 5378 5379 5382 5384 5386 5388 5389 5390 5390 5393 5394 5394 5394 5397 5399 5400 5402 5404 5406 5409 5412 5415 5419 5423 5427 5431 5436 5440 5444 5449 5454 5459 5464 5470 5476 5483 5489 5496 5502 5509 5515 5521 5526 5532 5537 5543 5548 5553 5558 5563 5569 5575 5582 5590 5597 5604 5610 5616 5621 5626 5630
5441 5435 5429 5422 5414 5407 5399 5393 5386 5380 5374 5369 5364 5360 5355 5351 5346 5342 5338 5334 5331 5328 5325 5323 5322 5322 5322 5323 5325 5329 5332 5336 5340 5344 5347 5350 5353 5356 5359 5361 5365 5369 5372 5374 5377 5379 5381 5383 5384 5385 5388 5390 5390 5389 5391 5393 5394 5396 5398 5400 5402 5404 5407 5410 5414 5418 5422 5426 5430 5434 5438 5443 5447 5452 5458 5463 5469 5475 5482 5488 5494 5501 5507 5513 5519 5524 5530 5536 5541 5545 5551 5557 5564 5572 5580 5588 5594 5600 5606 5611 5617 5621 5625
5437 5431 5424 5417 5409 5402 5394 5388 5381 5375 5370 5365 5360 5355 5350 5346 5341 5336 5332 5328 5324 5321 5318 5316 5314 5314 5313 5314 5316 5319 5322 5326 5331 5335 5339 5343 5346 5349 5352 5355 5359 5362 5365 5368 5371 5374 5376 5377 5379 5381 5384 5385 5385 5386 5388 5389 5390 5392 5394 5396 5398 5400 5403 5405 5409 5412 5416 5420 5424 5429 5433 5437 5441 5446 5452 5457 5463 5469 5474 5481 5487 5494 5500 5506 5512 5517 5523 5528 5534 5539 5545 5553 5561 5570 5579 5585 5591 5596 5602 5607 5612 5616 5620
5433 5426 5419 5412 5404 5397 5390 5384 5377 5372 5366 5361 5356 5351 5347 5342 5337 5332 5327 5323 5319 5316 5313 5310 5308 5306 5306 5306 5307 5309 5313 5317 5321 5326 5331 5335 5339 5342 5346 5349 5352 5356 5359 5363 5366 5368 5371 5373 5374 5377 5379 5380 5383 5384 5386 5385 5386 5389 5391 5393 5394 5396 5398 5401 5404 5407 5411 5415 5419 5423 5427 5431 5436 5441 5446 5451 5456 5462 5468 5474 5480 5486 5493 5499 5504 5510 5516 5521 5527 5534 5541 5549 5559 5567 5574 5580 5586 5591 5597 5602 5606 5611 5615